This demonstration page uses our WeatherBlox Daily Observations layout. Learn more.

Left ArrowRight Arrow

39.51506, -84.39828

Hourly Observations for April 12, 2018

Temp ( °F °C ) Dew Point ( °F °C ) Humidity (%) Winds ( mph kmh ) Pressure ( in mb ) Visibility ( mi km ) Precip ( " mm )
12:15 am 00:15 Partly Cloudy 56 13.5 38 3.3 50 50 S 9 15 30.00 1016 10 16 0.00 0.00
12:35 am 00:35 Partly Cloudy 57 13.8 37 3 48 48 S 9 15 30.00 1016 10 16 0.00 0.00
12:55 am 00:55 Mostly Cloudy 56 13.5 38 3.1 50 50 SSW 8 13 30.00 1016 10 16 0.00 0.00
1:15 am 01:15 Mostly Cloudy 56 13.2 38 3.6 52 52 SSW 9 15 30.00 1016 10 16 0.00 0.00
1:35 am 01:35 Partly Cloudy 56 13.3 38 3.1 50 50 S 9 15 30.00 1016 10 16 0.00 0.00
1:55 am 01:55 Partly Cloudy 57 13.7 38 3.1 49 49 S 12 19 29.97 1015 10 16 0.00 0.00
2:15 am 02:15 Clear 56 13.3 38 3.3 51 51 SW 9 15 29.97 1015 10 16 0.00 0.00
2:35 am 02:35 Clear 55 12.9 38 3.4 53 53 S 8 13 29.97 1015 10 16 0.00 0.00
2:55 am 02:55 Clear 55 13 38 3.3 52 52 S 9 15 29.97 1015 10 16 0.00 0.00
3:15 am 03:15 Clear 55 12.9 38 3.3 52 52 S 9 15 29.97 1015 10 16 0.00 0.00
3:35 am 03:35 Mostly Cloudy 55 13 38 3.3 52 52 S 8 13 29.94 1014 10 16 0.00 0.00
3:55 am 03:55 Cloudy 56 13.2 38 3.2 51 51 S 9 15 29.94 1014 10 16 0.00 0.00
4:15 am 04:15 Mostly Cloudy 56 13.3 37 3 50 50 S 9 15 29.94 1014 10 16 0.00 0.00
4:35 am 04:35 Cloudy 55 12.8 38 3.4 53 53 S 7 11 29.94 1014 10 16 0.00 0.00
4:55 am 04:55 Partly Cloudy 54 12.4 37 3 53 53 S 9 15 29.94 1014 10 16 0.00 0.00
5:15 am 05:15 Clear 53 11.8 37 3 55 55 S 8 13 29.94 1014 10 16 0.00 0.00
5:35 am 05:35 Clear 53 11.8 38 3.1 56 56 S 8 13 29.94 1014 10 16 0.00 0.00
5:55 am 05:55 Clear 55 12.6 38 3.1 53 53 S 12 19 29.91 1013 10 16 0.00 0.00
6:15 am 06:15 Clear 57 13.9 37 2.9 48 48 SSW 17 28 29.91 1013 10 16 0.00 0.00
6:35 am 06:35 Clear 56 13.6 37 2.9 49 49 SSW 12 19 29.91 1013 10 16 0.00 0.00
6:55 am 06:55 Clear 56 13.5 37 3 49 49 SSW 13 20 29.91 1013 10 16 0.00 0.00
7:15 am 07:15 Sunny 55 12.9 38 3.2 52 52 SSW 12 19 29.91 1013 10 16 0.00 0.00
7:35 am 07:35 Sunny 55 13 38 3.1 51 51 SSW 15 24 29.91 1013 10 16 0.00 0.00
7:55 am 07:55 Sunny 56 13.3 38 3.3 51 51 SSW 15 24 29.91 1013 10 16 0.00 0.00
8:15 am 08:15 Sunny 57 13.8 38 3.5 50 50 SSW 16 26 29.91 1013 10 16 0.00 0.00
8:35 am 08:35 Sunny 58 14.7 39 3.7 48 48 SSW 17 28 29.88 1012 10 16 0.00 0.00
8:55 am 08:55 Sunny 60 15.6 39 3.9 46 46 SSW 15 24 29.88 1012 10 16 0.00 0.00
9:15 am 09:15 Sunny 61 16.1 40 4.3 46 46 SSW 17 28 29.88 1012 10 16 0.00 0.00
9:35 am 09:35 Sunny 62 16.4 39 4 44 44 SSW 21 33 29.88 1012 10 16 0.00 0.00
9:55 am 09:55 Sunny 62 16.7 39 4.1 43 43 SSW 24 39 29.88 1012 10 16 0.00 0.00
10:15 am 10:15 Sunny 64 17.9 40 4.4 41 41 SSW 25 41 29.88 1012 10 16 0.00 0.00
10:35 am 10:35 Sunny 66 18.8 41 4.8 40 40 SSW 25 41 29.85 1011 10 16 0.00 0.00
10:55 am 10:55 Sunny 67 19.5 42 5.3 40 40 SSW 24 39 29.85 1011 10 16 0.00 0.00
11:15 am 11:15 Sunny 68 20 41 5.1 38 38 SSW 29 46 29.85 1011 10 16 0.00 0.00
11:35 am 11:35 Sunny 69 20.8 42 5.8 38 38 SSW 23 37 29.83 1010 10 16 0.00 0.00
11:55 am 11:55 Sunny 71 21.8 44 6.4 37 37 SSW 23 37 29.83 1010 10 16 0.00 0.00
12:15 pm 12:15 Sunny 72 22.3 44 6.7 37 37 SSW 22 35 29.83 1010 10 16 0.00 0.00
12:35 pm 12:35 Sunny 73 22.6 44 6.9 36 36 SSW 24 39 29.83 1010 10 16 0.00 0.00
12:55 pm 12:55 Sunny 73 23 45 7.1 36 36 SSW 23 37 29.83 1010 10 16 0.00 0.00
1:15 pm 13:15 Sunny 74 23.4 46 7.6 36 36 SSW 28 44 29.80 1009 10 16 0.00 0.00
1:35 pm 13:35 Sunny 75 23.8 45 7.4 35 35 SSW 26 43 29.80 1009 10 16 0.00 0.00
1:55 pm 13:55 Sunny 75 23.9 45 7.4 35 35 SSW 25 41 29.80 1009 10 16 0.00 0.00
2:15 pm 14:15 Sunny 76 24.3 46 7.6 34 34 SSW 22 35 29.80 1009 10 16 0.00 0.00
2:35 pm 14:35 Sunny 76 24.6 45 7.3 33 33 SSW 26 43 29.80 1009 10 16 0.00 0.00
2:55 pm 14:55 Sunny 77 24.9 46 7.5 33 33 SW 25 41 29.80 1009 10 16 0.00 0.00
3:15 pm 15:15 Sunny 78 25.3 45 7.2 32 32 SSW 25 41 29.80 1009 10 16 0.00 0.00
3:35 pm 15:35 Sunny 78 25.7 45 7.3 31 31 SSW 22 35 29.80 1009 10 16 0.00 0.00
3:55 pm 15:55 Sunny 78 25.8 45 7.2 31 31 SSW 25 41 29.74 1007 10 16 0.00 0.00
4:15 pm 16:15 Sunny 78 25.8 45 7.3 31 31 SW 25 41 29.74 1007 10 16 0.00 0.00
4:35 pm 16:35 Sunny 79 26.2 46 8 32 32 SSW 23 37 29.74 1007 10 16 0.00 0.00
4:55 pm 16:55 Sunny 78 25.8 45 7.1 30 30 SSW 23 37 29.74 1007 10 16 0.00 0.00
5:15 pm 17:15 Sunny 79 25.9 44 6.9 30 30 SSW 26 43 29.74 1007 10 16 0.00 0.00
5:35 pm 17:35 Sunny 78 25.7 44 6.9 30 30 SSW 23 37 29.77 1008 10 16 0.00 0.00
5:55 pm 17:55 Sunny 78 25.6 44 6.8 30 30 SSW 22 35 29.77 1008 10 16 0.00 0.00
6:15 pm 18:15 Sunny 78 25.6 44 6.4 29 29 SSW 21 33 29.77 1008 10 16 0.00 0.00
6:35 pm 18:35 Sunny 78 25.3 43 6.2 29 29 SSW 18 30 29.77 1008 10 16 0.00 0.00
6:55 pm 18:55 Sunny 77 24.9 43 6 30 30 SSW 18 30 29.77 1008 10 16 0.00 0.00
7:15 pm 19:15 Sunny 76 24.4 42 5.8 30 30 SW 17 28 29.77 1008 10 16 0.00 0.00
7:35 pm 19:35 Sunny 75 24 41 5.2 30 30 SSW 16 26 29.77 1008 10 16 0.00 0.00
7:55 pm 19:55 Sunny 73 22.9 42 5.3 32 32 SSW 14 22 29.77 1008 10 16 0.00 0.00
8:15 pm 20:15 Clear 72 22.4 41 5.2 33 33 SSW 12 19 29.77 1008 10 16 0.00 0.00
8:35 pm 20:35 Clear 70 21.1 42 5.7 37 37 S 9 15 29.77 1008 10 16 0.00 0.00
8:55 pm 20:55 Clear 70 21 42 5.5 36 36 S 8 13 29.77 1008 10 16 0.00 0.00
9:15 pm 21:15 Clear 69 20.8 42 5.4 37 37 S 8 13 29.77 1008 10 16 0.00 0.00
9:35 pm 21:35 Clear 67 19.3 42 5.7 41 41 SSW 7 11 29.80 1009 10 16 0.00 0.00
9:55 pm 21:55 Clear 67 19.5 42 5.7 41 41 S 8 13 29.80 1009 10 16 0.00 0.00
10:15 pm 22:15 Clear 68 19.9 42 5.6 39 39 S 9 15 29.77 1008 10 16 0.00 0.00
10:35 pm 22:35 Clear 68 20 42 5.6 39 39 S 13 20 29.77 1008 10 16 0.00 0.00
10:55 pm 22:55 Clear 69 20.7 42 5.3 37 37 SSW 15 24 29.77 1008 10 16 0.00 0.00
11:15 pm 23:15 Clear 69 20.8 42 5.3 36 36 S 13 20 29.77 1008 10 16 0.00 0.00
11:35 pm 23:35 Clear 69 20.7 42 5.4 37 37 S 13 20 29.77 1008 10 16 0.00 0.00
11:55 pm 23:55 Clear 69 20.4 42 5.3 37 37 S 12 19 29.77 1008 10 16 0.00 0.00

Powered by AerisWeather